sat.trackr.live / text

‹ back to catalog

STARLINK-4393

NORAD 53470 · 2022-099F

PAYLOAD ACTIVE UNKNOWN

§ Identity

Operator
Country
US
Launch date
2022-08-12
Launch site
AFWTR
Launch vehicle
Mass (kg)
RCS (m²)

Purposes: comms

External: N2YO · Heavens-Above · Gunter

§ Orbital elements

Epoch: 2026-05-24T19:14:24.555840Z

Period
95.64 min
Inclination
97.4521°
Eccentricity
0.0001398
Mean motion
15.05649958 rev/d
Perigee alt
548.5 km
Apogee alt
550.5 km
Semi-major
6,927.6 km
B*
5.3727e-5
RAAN
264.7510°
Arg perigee
154.1650°
Mean anomaly
205.9647°
Rev number
20,742

§ Raw data

STARLINK-43931 53470U 22099F   26144.80167310  .00000717  00000+0  53727-4 0  99962 53470  97.4521 264.7510 0001398 154.1650 205.9647 15.05649958207427

JSON: /api/v1/satellites/53470 · /tle

For live sub-satellite position, see the globe view (requires WebGL).

§ Visibility from observer

Set your observer location to see the next 7 days of passes ≥ 10°. The values pass through the URL so the page stays shareable.

No JS? Fill the form by hand. The geolocation button needs JavaScript.